Total_Precipitation_Accumulation
1.13 1.06 1.01 0.98 0.86 0.79 0.76 0.82 0.82 0.75 0.71 0.65 0.54 0.45 0.42 0.42 0.38 0.38 0.37 0.38 0.43 0.55 0.72 0.82 0.83 0.81 0.82 0.88 0.87 0.83 0.78 0.70 0.63 0.56 0.54 0.54 0.51 0.51 0.55 0.58 0.61 0.63 0.66
1.30 1.23 1.08 1.02 0.96 0.88 0.83 0.89 0.91 0.84 0.81 0.73 0.65 0.56 0.49 0.48 0.41 0.38 0.38 0.40 0.40 0.48 0.66 0.83 0.95 1.04 1.06 1.12 1.10 1.02 0.91 0.82 0.75 0.71 0.68 0.67 0.60 0.58 0.60 0.58 0.59 0.61 0.63
1.40 1.38 1.28 1.10 0.99 1.01 1.00 1.00 1.05 1.04 0.94 0.82 0.74 0.67 0.60 0.53 0.47 0.43 0.42 0.41 0.38 0.37 0.50 0.71 0.89 1.01 1.09 1.19 1.27 1.23 1.08 0.93 0.84 0.78 0.77 0.79 0.74 0.69 0.66 0.67 0.69 0.69 0.70
1.50 1.53 1.43 1.33 1.23 1.22 1.22 1.16 1.09 1.01 0.93 0.81 0.74 0.71 0.67 0.62 0.56 0.55 0.54 0.47 0.41 0.34 0.39 0.52 0.65 0.81 0.97 1.08 1.22 1.38 1.24 1.09 0.96 0.86 0.84 0.89 0.91 0.84 0.81 0.82 0.81 0.79 0.80
1.72 1.72 1.63 1.54 1.51 1.46 1.43 1.35 1.23 1.09 0.97 0.87 0.80 0.80 0.79 0.73 0.68 0.64 0.59 0.51 0.48 0.44 0.43 0.43 0.46 0.55 0.68 0.89 1.07 1.29 1.40 1.32 1.15 1.02 0.93 0.90 0.91 0.93 0.96 0.98 0.98 0.97 0.99
2.06 1.94 1.88 1.79 1.73 1.64 1.56 1.54 1.42 1.27 1.11 1.04 1.00 0.91 0.85 0.78 0.76 0.72 0.67 0.60 0.55 0.54 0.56 0.56 0.55 0.53 0.57 0.71 0.96 1.17 1.36 1.47 1.35 1.15 1.03 0.97 0.98 1.01 1.08 1.15 1.19 1.23 1.24
2.32 2.19 2.03 2.02 1.96 1.80 1.63 1.61 1.62 1.50 1.35 1.32 1.28 1.06 0.90 0.81 0.76 0.71 0.74 0.74 0.66 0.60 0.61 0.67 0.71 0.66 0.55 0.55 0.68 0.86 1.06 1.29 1.45 1.42 1.26 1.14 1.11 1.17 1.28 1.39 1.46 1.46 1.44
2.56 2.36 2.19 2.11 2.09 2.03 1.83 1.70 1.74 1.72 1.59 1.55 1.56 1.50 1.29 1.08 0.85 0.74 0.74 0.74 0.72 0.70 0.65 0.62 0.63 0.66 0.65 0.56 0.53 0.60 0.71 0.95 1.27 1.56 1.66 1.56 1.46 1.45 1.54 1.66 1.75 1.79 1.78
2.82 2.64 2.42 2.35 2.28 2.25 2.15 1.99 1.90 1.87 1.83 1.73 1.73 1.90 1.69 1.35 1.01 0.84 0.81 0.79 0.77 0.79 0.78 0.72 0.67 0.66 0.67 0.62 0.59 0.59 0.61 0.74 1.06 1.42 1.76 1.90 1.88 1.89 2.02 2.15 2.19 2.26 2.20
2.85 2.85 2.70 2.50 2.41 2.36 2.30 2.36 2.36 2.22 2.11 1.92 1.78 1.68 1.64 1.48 1.40 1.16 0.93 0.90 0.86 0.82 0.86 0.84 0.78 0.75 0.70 0.69 0.70 0.71 0.74 0.79 1.02 1.42 1.78 2.05 2.20 2.40 2.65 2.77 2.76 2.76 2.62
2.65 2.77 2.77 2.62 2.38 2.25 2.19 2.24 2.33 2.38 2.25 2.04 1.88 1.77 1.68 1.50 1.40 1.43 1.23 1.03 0.99 0.88 0.84 0.88 0.91 0.92 0.92 0.89 0.87 0.91 0.97 1.00 1.20 1.56 1.96 2.32 2.61 2.87 3.12 3.28 3.27 3.21 3.07
2.48 2.49 2.51 2.45 2.37 2.24 2.13 2.15 2.27 2.36 2.38 2.29 2.08 1.87 1.78 1.67 1.46 1.46 1.42 1.26 1.23 1.10 0.97 0.96 1.00 1.04 1.06 1.08 1.05 1.15 1.17 1.25 1.38 1.61 2.01 2.39 2.68 2.89 3.10 3.40 3.56 3.51 3.45
2.37 2.36 2.43 2.36 2.30 2.21 2.17 2.13 2.15 2.16 2.20 2.25 2.18 2.00 1.79 1.64 1.54 1.61 1.65 1.53 1.42 1.29 1.23 1.15 1.06 1.04 1.05 1.09 1.16 1.30 1.23 1.26 1.31 1.47 1.82 2.18 2.31 2.41 2.56 2.80 3.12 3.30 3.35
2.26 2.24 2.33 2.32 2.26 2.22 2.19 2.14 2.08 2.04 2.04 2.06 2.01 1.93 1.79 1.62 1.53 1.58 1.72 1.86 1.84 1.57 1.36 1.27 1.17 1.11 1.10 1.10 1.18 1.32 1.19 1.34 1.33 1.41 1.59 1.76 1.74 1.69 1.82 2.03 2.25 2.54 2.76
2.20 2.11 2.14 2.17 2.14 2.11 2.11 2.11 2.07 1.94 1.88 1.88 1.83 1.76 1.68 1.56 1.48 1.47 1.56 1.76 2.07 2.02 1.64 1.30 1.24 1.19 1.17 1.14 1.24 1.16 1.07 1.32 1.37 1.35 1.37 1.37 1.33 1.33 1.43 1.58 1.77 2.02 2.24
2.15 2.00 1.95 1.98 2.00 1.98 1.97 2.03 1.97 1.87 1.83 1.76 1.71 1.68 1.61 1.53 1.51 1.52 1.57 1.64 1.79 1.95 1.80 1.35 1.17 1.13 1.16 1.15 1.25 1.11 1.07 1.32 1.30 1.28 1.25 1.21 1.20 1.24 1.34 1.47 1.55 1.69 1.95
2.00 2.00 1.89 1.90 1.95 1.94 1.90 1.92 1.94 1.88 1.79 1.70 1.64 1.60 1.56 1.51 1.52 1.50 1.54 1.61 1.65 1.72 1.71 1.35 1.13 1.11 1.20 1.21 1.22 1.12 1.06 1.03 1.02 1.12 1.09 1.08 1.06 1.11 1.23 1.36 1.46 1.54 1.69
1.73 1.77 1.76 1.77 1.80 1.80 1.77 1.74 1.76 1.78 1.75 1.66 1.61 1.61 1.57 1.57 1.65 1.66 1.66 1.65 1.63 1.60 1.59 1.44 1.21 1.11 1.09 1.05 1.03 1.04 1.02 0.98 0.92 1.07 1.04 1.00 1.03 1.08 1.17 1.22 1.28 1.39 1.49
1.60 1.63 1.61 1.66 1.70 1.66 1.69 1.66 1.62 1.64 1.67 1.65 1.61 1.61 1.59 1.61 1.67 1.69 1.68 1.65 1.57 1.52 1.51 1.47 1.31 1.17 1.15 1.08 1.06 1.04 1.01 0.97 0.89 0.98 1.02 1.00 1.03 1.06 1.10 1.18 1.21 1.23 1.28
1.41 1.43 1.45 1.45 1.51 1.54 1.59 1.65 1.68 1.63 1.62 1.63 1.61 1.57 1.53 1.52 1.51 1.49 1.49 1.47 1.47 1.48 1.49 1.51 1.41 1.28 1.22 1.19 1.18 1.21 1.16 1.03 0.95 0.85 0.92 0.91 0.94 0.97 0.98 1.03 1.09 1.11 1.13
1.29 1.34 1.37 1.37 1.35 1.39 1.49 1.58 1.67 1.72 1.70 1.67 1.65 1.59 1.48 1.43 1.36 1.32 1.30 1.29 1.31 1.43 1.51 1.55 1.48 1.35 1.23 1.22 1.21 1.13 1.14 1.10 1.04 0.92 0.86 0.81 0.79 0.77 0.79 0.89 0.99 1.10 1.18
1.28 1.31 1.39 1.42 1.42 1.44 1.65 1.73 1.69 1.69 1.71 1.67 1.58 1.45 1.37 1.35 1.30 1.32 1.32 1.30 1.35 1.48 1.60 1.57 1.44 1.26 1.07 1.01 1.08 1.18 1.27 1.32 1.24 0.94 0.88 0.89 0.85 0.84 0.77 0.79 1.00 1.12 1.24
1.39 1.48 1.50 1.58 1.57 1.57 1.64 1.54 1.55 1.50 1.55 1.56 1.48 1.35 1.26 1.16 1.15 1.05 1.15 1.24 1.26 1.33 1.38 1.34 1.27 1.09 1.00 0.99 1.20 1.42 1.39 1.31 1.09 0.87 0.92 1.00 0.91 0.90 0.84 0.90 1.09 1.10 1.22
1.40 1.53 1.56 1.59 1.58 1.57 1.56 1.43 1.41 1.27 1.26 1.29 1.29 1.24 1.16 1.12 1.08 1.07 1.11 1.18 1.09 1.04 1.05 0.98 0.98 1.01 1.01 1.03 1.21 1.46 1.46 1.42 1.20 1.01 0.99 1.11 0.95 0.92 0.86 0.90 1.06 1.03 1.08
1.29 1.36 1.41 1.42 1.36 1.35 1.37 1.28 1.26 1.16 1.15 1.12 1.11 1.13 1.16 1.08 1.16 1.28 1.24 1.20 1.05 0.93 0.96 1.03 1.08 1.08 1.13 1.13 1.20 1.51 1.67 1.71 1.52 1.17 0.98 1.00 0.89 0.88 0.93 0.96 1.04 1.12 1.10
1.09 1.08 1.09 1.08 1.05 1.03 1.11 1.08 1.08 0.99 1.02 1.00 1.01 1.05 1.18 1.12 1.20 1.28 1.15 1.12 1.05 0.92 0.89 0.89 0.89 0.88 0.86 0.91 1.07 1.24 1.65 1.97 1.69 1.33 0.95 1.03 1.03 1.09 1.33 1.05 1.00 1.04 1.08